Location: Condor
(52.3263°N, 114.5541°W)
Time: 22:33:24
(UTC+00:00)

Oscar 19 - Pass Details

Date: 12 December 2023
Orbit: 771 x 789 km, 98.9° (Epoch: 04 March)

Event Time Altitude Azimuth Distance (km) Brightness Sun altitude
Rises 11:31:36 0° 23° (NNE) 3,280 14.2 -36.3°
Reaches altitude 10° 11:34:17 10° 36° (NE) 2,350 13.5 -35.9°
Maximum altitude 11:38:39 27° 93° (E) 1,483 12.5 -35.2°
Drops below altitude 10° 11:43:00 10° 151° (SSE) 2,344 13.3 -34.6°
Sets 11:45:39 0° 163° (SSE) 3,270 14.0 -34.2°
